Tracking 20623 objects as of 3-Apr-2020
HD Live streaming from Space Station
objects crossing your sky now

EUTELSAT 1-F4 (ECS 4)

Track EUTELSAT 1-F4 (ECS 4) now!
EUTELSAT 1-F4 (ECS 4) is classified as:


NORAD ID: 18351
Int'l Code: 1987-078B
Perigee: 36,174.0 km
Apogee: 36,313.7 km
Inclination: 15.3 °
Period: 1,459.2 minutes
Semi major axis: 42614 km
RCS: 3.9811 m2 (large)
Launch date: September 16, 1987
Source: European Telecommunications Satellite Organization (EUTE)
Launch site: FRENCH GUIANA (FRGUI)
aabbcc
Your satellite tracking list
Your tracking list is empty




NASA's NSSDC Master Catalog

Two Line Element Set (TLE):
1 18351U 87078B   20094.16611833 -.00000045  00000-0  00000+0 0  9991
2 18351  15.3020 359.7210 0016394 354.1523 170.0993  0.98687250104373
Source of the keplerian elements: AFSPC